User: anonymous   Login
Location: Unspecified
(0.0000°N, 0.0000°E)
Time: 04:39:25
(UTC+02:00)
Language:

Gurwin Techsat 1B - Orbit

View from above orbital plane
View from above orbital plane
View from above satellite
View from above satellite

Ground track
Ground track

The orbit data is extracted from the following two-line orbital elements,

1 25397U 98043D   16206.88345196 -.00000010 +00000-0 +14596-4 0  9990
2 25397 098.5688 150.8512 0000740 165.5014 194.6186 14.23598591937008
Epoch (UTC): 24 July 2016 21:12:10
Eccentricity: 0.0000740
inclination: 98.5688°
perigee height: 812 km
apogee height: 814 km
right ascension of ascending node: 150.8512°
argument of perigee: 165.5014°
revolutions per day: 14.23598591
mean anomaly at epoch: 194.6186°
orbit number at epoch: 93700

The dashed part of the orbit path shows where the satellite is in the earth's shadow,  

DLR